Wetbulb
50.20 49.11 47.67 46.05 45.28 45.50 45.86 45.86 45.18 45.32 45.64 45.64 45.82 46.27 46.55 46.36 45.69 45.50 45.55 45.87 45.04 43.74 42.52 41.82 41.76 41.89 42.16 42.59 42.45 42.40 42.30 42.32 42.34 42.11 41.79 41.78 41.88 41.66 41.44 41.09 40.69 40.24 39.78 39.15 38.45 37.21 35.99 35.32 35.26 35.15 34.86 34.03 33.33 32.78 32.55 32.45 32.37 32.45 32.39 32.17 31.79 31.29 30.91 31.16 30.85 30.35 29.96 30.22 30.53
49.02 47.27 45.19 43.39 43.79 44.91 45.86 45.68 45.27 44.96 44.97 45.11 44.98 44.98 44.89 44.75 44.26 43.91 43.78 43.62 42.96 42.24 41.67 41.68 42.16 42.44 42.74 42.87 42.99 42.94 42.85 42.62 42.40 41.99 41.80 41.75 41.66 41.43 41.15 40.74 40.46 40.04 39.41 38.70 37.92 36.97 36.01 35.30 35.39 35.13 34.70 33.96 33.66 33.37 33.03 32.61 33.22 33.35 32.98 31.95 31.73 31.56 31.57 31.88 30.70 30.10 29.84 30.05 30.05
47.72 46.41 45.51 45.11 45.46 45.82 45.96 45.73 45.19 44.60 44.25 44.18 44.36 44.27 44.17 43.99 43.60 43.12 42.81 42.64 42.32 42.14 42.18 42.46 42.87 43.04 43.04 43.12 43.12 43.04 42.82 42.51 42.11 41.75 41.35 40.98 40.62 40.17 39.82 39.38 39.19 38.79 38.25 37.90 36.72 36.09 35.68 35.40 35.42 35.18 34.89 34.72 34.22 33.88 33.44 32.86 33.44 33.68 33.27 31.80 31.92 32.24 32.55 32.91 30.87 30.20 30.30 30.33 30.06
47.18 46.46 46.01 45.83 45.65 45.74 45.51 45.29 44.52 44.12 43.82 44.09 44.22 44.08 43.89 43.71 43.41 43.19 42.98 42.80 42.76 42.98 43.19 43.40 43.52 43.38 43.16 42.89 42.67 42.55 42.24 41.75 41.50 41.11 40.66 40.21 39.73 39.43 39.17 38.91 38.70 38.54 38.18 37.97 36.76 36.16 35.75 35.37 35.63 35.36 34.84 34.07 33.74 33.47 33.17 32.66 32.69 32.93 32.85 31.60 31.78 32.23 32.65 32.73 31.45 31.28 31.47 30.98 30.17
47.62 47.31 46.77 46.15 45.79 45.57 45.43 44.98 44.53 44.18 44.18 44.35 44.26 44.03 43.93 43.93 43.84 43.76 43.45 43.26 43.39 43.61 43.88 44.10 43.83 43.47 42.93 42.58 42.23 42.01 41.65 41.26 40.68 40.51 40.38 39.94 39.73 39.73 39.47 39.38 38.93 38.75 38.55 38.41 37.74 37.04 36.40 36.04 36.84 35.87 34.50 33.61 34.03 33.59 32.71 32.12 32.45 32.29 31.97 32.00 32.09 32.49 32.76 32.44 31.98 31.79 31.66 31.43 30.84
47.76 47.58 47.09 46.42 45.88 45.61 45.52 45.30 44.94 44.81 44.71 44.62 44.13 43.99 44.03 44.38 44.42 44.20 43.84 43.52 43.83 44.01 44.06 43.65 43.29 42.84 42.62 42.58 42.22 41.78 41.60 41.29 41.07 40.77 40.51 40.16 40.12 40.08 40.09 39.71 39.34 38.96 38.41 38.00 37.44 36.77 36.11 36.08 36.15 35.32 34.40 34.04 33.08 32.47 32.27 32.74 33.16 32.78 32.10 32.08 32.36 32.36 32.35 32.06 31.82 31.66 31.57 31.43 30.84
47.53 47.53 47.04 46.37 45.93 45.70 45.57 45.48 45.48 45.43 45.07 44.80 44.18 44.09 44.13 44.44 44.47 44.20 43.93 44.06 44.06 44.06 43.79 43.29 43.16 43.07 42.89 42.71 42.31 42.04 41.68 41.42 41.20 40.95 40.60 40.38 40.44 40.33 40.35 40.10 39.44 38.69 37.99 37.22 36.51 35.95 35.59 35.29 35.36 34.83 34.38 34.22 33.67 32.67 32.07 33.01 33.55 33.12 32.48 31.79 32.05 32.18 31.82 31.07 31.14 31.18 30.90 30.23 29.79
47.49 47.57 47.17 46.55 46.02 45.84 45.53 45.66 45.79 45.70 45.43 44.98 44.54 44.32 44.36 44.53 44.35 44.21 44.29 44.33 44.15 44.02 43.84 43.58 43.71 43.76 43.48 43.21 42.58 42.13 41.69 41.29 40.93 40.81 40.60 40.44 40.29 40.28 40.14 39.73 38.69 37.69 36.77 36.05 35.35 34.87 34.70 35.05 35.09 34.63 34.04 33.98 33.60 32.67 32.04 32.57 33.04 32.73 32.03 31.23 31.36 31.15 30.76 30.49 30.32 30.48 30.22 29.44 28.93
47.35 47.62 47.35 46.68 46.19 45.88 45.79 45.84 45.97 45.97 45.65 45.38 44.98 44.89 44.89 44.75 44.48 44.39 44.38 44.24 44.24 44.20 44.17 44.12 44.17 44.08 43.95 43.54 42.96 42.33 41.75 41.14 40.69 40.48 40.32 40.18 39.91 39.81 39.55 38.75 37.45 36.02 34.98 34.59 34.50 34.41 34.48 34.95 34.66 34.28 33.98 33.98 33.38 32.54 32.04 32.41 32.53 32.20 31.60 31.14 30.73 30.39 30.08 30.03 30.03 29.88 29.67 29.34 28.84
46.86 47.44 47.31 46.51 46.01 45.75 45.75 45.97 46.15 46.14 46.01 45.60 45.51 45.29 44.93 44.17 44.34 44.39 44.56 44.51 44.51 44.56 44.43 44.40 44.36 44.32 44.05 43.73 43.15 42.58 41.92 41.19 40.58 40.12 39.84 39.57 39.24 38.83 38.20 37.12 35.51 34.50 33.75 33.62 34.06 34.17 34.27 34.43 33.88 33.43 33.13 33.19 32.58 32.05 32.08 32.64 32.38 31.94 31.43 31.38 30.55 29.86 29.46 29.43 29.51 29.43 29.20 29.03 28.57
46.64 47.22 47.09 46.28 45.84 45.66 45.75 46.01 46.01 46.01 46.01 45.87 45.74 45.51 45.06 44.26 44.53 44.53 44.70 44.84 44.65 44.48 44.48 44.58 44.37 44.23 43.97 43.70 43.13 42.35 41.59 40.97 40.31 39.73 39.20 38.81 38.45 37.68 36.80 35.54 34.42 33.64 33.21 33.20 33.69 34.11 34.13 33.96 33.09 32.41 32.16 32.10 31.88 31.95 32.13 32.47 32.00 31.30 30.70 30.22 29.71 29.25 28.77 28.43 28.47 28.46 28.30 27.91 27.64
46.59 46.91 46.73 46.33 46.02 45.84 45.84 46.05 46.05 46.05 45.96 46.00 45.74 45.42 45.20 44.98 44.89 44.71 44.71 44.80 44.49 44.36 44.37 44.42 44.21 43.90 43.64 43.19 42.39 41.43 40.59 39.90 39.46 38.98 38.50 38.11 37.41 36.40 35.28 34.44 33.77 33.37 33.08 32.93 33.49 33.78 33.80 33.23 32.62 31.92 31.44 31.22 31.78 32.12 32.22 31.93 31.42 30.71 29.89 29.10 28.85 28.51 27.90 27.18 27.04 27.12 27.12 26.63 26.71
46.46 46.68 46.50 46.28 46.15 46.06 46.15 46.19 46.27 46.18 46.18 46.00 45.83 45.48 45.26 45.13 44.99 44.81 44.63 44.58 44.36 44.20 44.25 44.14 43.84 43.41 42.93 42.29 41.39 40.33 39.56 38.84 38.56 38.28 37.89 37.35 36.25 35.15 34.23 33.68 33.37 33.12 32.96 32.84 33.03 33.22 33.20 32.64 32.16 31.60 31.07 30.83 31.41 31.75 31.93 31.66 30.96 30.11 29.25 28.44 28.09 27.70 27.21 26.46 26.13 25.97 25.83 25.47 25.72
46.19 46.23 46.28 46.14 46.19 46.24 46.37 46.36 46.36 46.36 46.23 45.96 45.75 45.66 45.44 45.36 44.96 44.87 44.73 44.68 44.34 44.09 43.80 43.42 42.99 42.53 41.95 41.27 40.24 39.28 38.52 37.99 37.79 37.56 37.09 36.30 35.19 34.13 33.44 33.15 32.88 32.73 32.52 32.33 32.12 32.15 32.29 32.14 31.75 31.32 30.90 30.50 30.70 31.05 31.22 31.26 30.62 29.76 28.87 28.12 27.62 27.07 26.55 25.97 25.58 25.48 25.40 25.23 24.63
45.92 46.01 46.10 45.97 46.15 46.24 46.46 46.37 46.45 46.45 46.36 45.97 45.93 45.80 45.58 45.32 44.96 44.75 44.79 44.62 44.19 43.76 43.26 42.59 42.00 41.43 40.76 40.06 39.21 38.44 37.68 37.31 36.98 36.71 36.14 35.13 34.17 33.26 32.67 32.46 32.19 31.99 31.97 31.73 31.45 31.54 31.68 31.59 31.23 30.96 30.69 30.44 30.43 30.52 30.62 30.61 30.01 29.38 28.77 28.14 27.53 26.82 26.22 25.67 25.31 25.18 25.22 24.85 23.96
46.01 45.88 45.88 45.97 45.97 46.19 46.28 46.33 46.46 46.50 46.32 46.02 45.93 45.76 45.54 45.32 45.10 44.88 44.54 44.15 43.73 43.19 42.36 41.57 40.97 40.38 39.75 38.75 38.17 37.56 37.04 36.57 36.31 35.86 35.18 34.20 33.33 32.61 32.11 31.82 31.57 31.35 31.28 31.18 30.96 30.98 30.99 31.00 30.98 30.90 30.69 30.44 30.30 30.03 29.87 29.80 29.34 28.77 28.22 27.83 27.26 26.66 26.00 25.42 25.10 24.94 24.81 24.75 23.85
46.11 45.79 45.79 45.93 45.70 46.02 46.15 46.24 46.42 46.33 46.06 45.98 45.76 45.45 45.28 44.97 45.06 44.50 43.90 43.31 42.82 42.04 41.14 40.50 40.03 39.48 38.67 37.50 37.30 36.93 36.57 36.10 35.77 35.13 34.46 33.62 32.75 32.18 31.88 31.59 31.31 31.16 31.04 30.97 30.81 30.44 30.16 30.07 30.42 30.66 30.70 30.46 30.19 29.77 29.29 29.09 28.61 28.05 27.56 27.18 26.77 26.37 25.87 25.49 25.03 24.74 24.62 24.67 23.97
46.11 45.75 45.66 45.58 45.53 45.84 46.15 46.20 46.33 46.15 45.93 45.76 45.45 45.15 44.84 44.67 44.50 44.03 43.44 42.65 42.00 40.91 39.99 39.44 39.24 38.69 37.78 36.82 36.61 36.54 36.32 35.99 35.40 34.74 34.01 33.32 32.69 32.18 31.84 31.55 31.27 31.10 31.04 31.04 30.73 30.23 29.83 29.60 30.03 30.30 30.35 30.10 29.61 29.20 28.79 28.30 27.78 27.26 26.83 26.59 26.26 25.85 25.47 25.06 24.71 24.66 24.71 24.49 24.05
46.50 45.76 45.36 45.27 45.49 45.71 46.07 45.93 46.20 46.02 45.67 45.50 45.15 44.76 44.33 44.08 43.91 43.49 43.07 42.24 41.11 40.10 39.32 38.69 38.49 37.95 37.28 36.34 36.03 35.88 35.84 35.66 34.89 34.16 33.54 32.97 32.51 32.11 31.77 31.47 31.05 30.97 30.96 30.95 30.58 30.24 30.02 30.02 30.11 30.11 29.95 29.46 28.92 28.37 27.95 27.53 27.02 26.66 26.29 25.88 25.61 25.23 24.79 24.42 24.03 24.11 24.27 24.17 23.79
46.35 45.80 45.32 45.15 45.37 45.72 45.93 46.02 46.02 45.76 45.28 45.24 44.76 44.29 43.86 43.44 43.28 42.74 42.16 41.47 40.33 39.44 38.69 37.97 37.47 37.00 36.38 35.71 35.53 35.44 35.43 35.35 34.59 33.83 33.18 32.67 32.25 31.94 31.59 31.23 30.96 30.80 30.79 30.80 30.49 30.25 30.10 30.22 30.10 29.88 29.45 28.79 28.12 27.56 27.04 26.74 26.28 25.85 25.47 25.28 24.87 24.53 24.24 23.81 23.51 23.25 23.14 23.16 23.15
45.33 45.74 45.54 45.28 45.45 45.67 45.93 46.06 45.97 45.45 44.85 44.63 44.33 43.87 43.40 42.95 42.53 41.92 41.31 40.65 39.51 38.62 37.91 37.17 36.60 36.03 35.60 35.20 35.15 35.11 35.17 35.08 34.36 33.61 33.04 32.51 32.08 31.82 31.55 31.40 31.10 30.96 30.82 30.79 30.50 30.33 30.09 30.09 29.92 29.52 29.01 28.39 27.73 27.15 26.63 26.17 25.52 24.94 24.58 24.35 23.94 23.62 23.25 23.12 22.66 22.25 22.04 21.87 21.96
43.42 44.80 45.51 45.61 45.52 45.69 45.82 45.82 45.64 45.05 44.50 44.17 43.78 43.36 42.91 42.29 41.71 41.22 40.77 40.15 38.78 37.69 36.92 36.21 35.74 35.45 35.17 35.08 35.18 35.25 35.06 34.63 33.94 33.42 33.08 32.60 32.16 31.82 31.76 31.73 31.25 30.97 30.73 30.47 30.32 30.11 29.88 29.86 29.46 29.05 28.63 28.14 27.37 26.91 26.47 25.84 24.85 24.06 23.43 22.95 22.59 22.21 22.03 21.74 21.51 21.22 20.99 20.82 20.92
42.19 43.47 44.77 45.40 45.53 45.28 44.95 45.03 44.85 44.31 43.77 43.40 43.20 42.78 42.16 41.55 40.98 40.60 40.03 39.39 38.00 36.91 36.21 35.55 35.35 35.18 35.15 35.32 35.40 35.03 34.62 33.89 33.28 33.05 32.82 32.66 32.10 31.71 31.62 31.73 31.36 31.03 30.72 30.51 30.13 29.85 29.61 29.35 28.84 28.47 28.22 27.81 26.96 26.41 26.00 25.49 24.60 23.73 22.80 21.97 21.48 21.10 20.92 20.62 20.48 20.39 20.37 20.55 20.72
42.07 42.72 43.59 44.78 44.98 44.79 44.41 44.20 43.78 43.24 42.76 42.57 42.32 42.00 41.39 40.58 40.10 39.73 39.10 38.37 37.36 36.53 35.82 35.53 35.40 35.20 35.16 35.32 35.26 34.82 34.21 33.35 32.70 32.44 32.31 32.16 31.82 31.53 31.50 31.72 31.44 31.18 30.90 30.91 30.88 30.77 30.30 29.37 28.54 28.12 27.87 27.54 26.88 26.30 25.73 25.14 24.34 23.45 22.60 21.68 21.11 20.58 20.22 19.94 20.07 20.45 20.84 20.98 21.63
41.98 42.29 42.62 43.55 43.84 43.76 43.50 43.09 42.55 42.06 41.86 41.82 41.71 41.30 40.58 39.72 39.28 38.74 38.02 37.16 36.68 36.03 35.46 35.10 35.08 35.06 35.01 34.98 34.88 34.52 34.00 33.18 32.59 32.11 31.81 31.46 31.54 31.53 31.70 31.64 31.52 31.39 31.47 31.59 32.89 33.14 32.27 30.68 29.72 28.64 27.81 27.40 26.79 26.14 25.49 24.70 24.09 23.53 22.96 22.30 21.52 20.94 20.38 19.95 20.20 20.78 21.28 21.28 22.38
40.78 41.31 41.74 42.38 42.70 42.53 42.20 41.75 41.63 41.38 41.17 41.05 41.05 40.54 39.87 39.13 38.67 37.84 37.02 36.24 35.98 35.59 35.19 34.83 34.86 34.76 34.71 34.80 34.36 33.88 33.36 32.92 32.67 32.16 31.67 31.33 31.32 31.56 31.77 31.81 31.64 31.70 32.22 33.20 34.08 34.02 33.47 32.70 31.46 29.67 28.03 27.37 26.63 25.84 24.99 24.13 23.77 23.39 22.92 22.31 21.95 21.54 21.13 20.73 20.34 20.59 21.18 21.79 22.26
39.80 40.38 40.93 41.61 41.79 41.50 41.18 40.86 41.03 40.82 40.64 40.37 40.26 39.87 39.32 38.75 38.14 37.20 36.27 35.65 35.54 35.32 35.10 34.89 34.86 34.53 34.34 34.50 33.77 33.01 32.58 32.66 32.58 32.28 31.83 31.54 31.38 31.47 31.59 31.67 31.75 32.24 33.04 34.36 34.56 34.28 33.76 33.31 32.31 30.67 28.84 27.07 26.47 25.71 24.95 23.84 23.20 22.79 22.34 21.84 21.64 21.62 21.38 21.06 20.89 21.01 21.41 21.76 22.18
39.22 39.75 40.23 40.70 40.98 40.94 40.61 40.58 40.47 40.26 40.01 39.74 39.67 39.40 39.01 38.37 37.42 36.41 35.64 35.20 35.32 35.17 35.06 34.98 34.88 34.62 34.41 34.05 33.16 32.63 32.37 32.49 32.60 32.37 32.07 31.79 31.63 31.55 31.63 31.75 31.86 32.67 33.93 35.12 34.84 34.47 33.95 33.48 32.50 31.31 29.38 26.99 26.06 25.15 24.39 23.45 22.64 22.03 21.56 21.30 21.15 21.06 20.93 20.98 21.10 21.42 21.50 21.32 21.67
38.45 39.07 39.29 39.55 40.10 40.34 40.42 40.11 39.86 39.65 39.53 39.47 39.48 39.17 38.67 37.87 36.70 35.76 35.22 34.94 34.88 34.79 34.78 34.80 34.76 34.38 33.80 33.35 32.94 32.58 32.49 32.73 32.79 32.61 32.23 31.79 31.65 31.67 31.76 31.70 31.83 32.95 34.42 35.55 35.02 34.57 34.06 33.44 32.46 31.37 30.11 28.51 26.25 25.07 24.19 23.31 22.41 21.61 21.04 20.86 20.73 20.69 20.69 20.69 20.85 21.01 21.09 21.02 21.11
37.85 38.52 38.77 38.76 39.21 39.67 39.76 39.63 39.26 39.29 39.27 39.16 39.09 38.79 38.17 37.32 36.04 35.23 34.81 34.66 34.61 34.56 34.72 34.76 34.40 33.70 33.08 32.94 32.72 32.60 32.57 32.90 32.90 32.67 32.09 31.35 31.16 31.18 31.38 31.64 32.17 33.47 34.76 35.59 34.96 34.56 33.99 33.29 32.22 31.15 30.00 28.54 25.81 24.24 23.31 22.67 21.97 21.44 21.04 20.54 20.21 20.05 20.20 20.24 20.23 20.27 20.52 20.76 20.70
37.60 38.30 38.76 38.69 38.80 38.88 39.05 39.01 38.84 38.89 38.94 38.86 38.63 38.17 37.59 36.66 35.45 34.88 34.68 34.62 34.63 34.67 34.63 34.61 33.80 33.15 32.75 32.83 32.55 32.46 32.52 32.71 32.67 32.23 31.64 30.97 30.67 30.75 31.06 31.43 32.27 33.58 34.85 35.49 34.98 34.41 33.80 32.93 31.80 30.64 29.33 27.79 25.24 23.59 22.59 22.05 21.62 21.26 20.88 20.20 19.79 19.56 19.57 19.51 19.44 19.48 19.68 19.88 20.43
37.01 37.81 38.70 38.96 38.72 38.62 38.72 38.82 38.74 38.82 38.79 38.51 38.13 37.74 37.01 36.10 35.31 34.98 34.97 34.94 34.76 34.60 34.31 33.88 33.22 32.74 32.54 32.54 32.34 32.32 32.40 32.41 32.17 31.82 31.42 30.82 30.73 30.75 31.09 31.53 32.27 33.31 34.38 35.40 34.63 33.98 33.28 32.27 31.12 29.89 28.44 26.93 24.58 22.68 21.58 21.44 20.92 20.45 19.95 19.36 19.08 18.86 18.80 19.08 18.72 18.49 18.61 19.22 19.82
36.59 37.27 38.07 38.90 38.72 38.64 38.78 39.06 38.98 38.90 38.74 38.42 37.85 37.31 36.64 35.71 35.13 35.07 35.07 35.02 34.73 34.33 33.81 33.32 32.87 32.36 32.19 32.10 32.05 32.11 32.13 32.04 31.65 31.28 30.80 30.59 30.82 31.02 31.23 31.53 32.32 33.36 34.38 34.81 34.10 33.24 32.35 31.34 30.13 28.84 27.43 26.05 23.46 21.71 20.81 20.71 20.27 19.63 19.00 18.31 17.89 17.71 17.65 17.73 18.04 17.90 17.81 17.94 18.46
35.57 36.49 37.57 38.42 38.39 38.34 38.44 38.58 38.56 38.31 37.98 37.71 37.14 36.72 36.13 35.35 34.98 34.83 34.82 34.82 34.58 34.16 33.67 33.22 32.93 32.55 32.36 32.33 32.25 32.10 31.94 31.74 31.18 30.72 30.44 30.60 31.01 31.23 31.24 31.39 32.21 33.50 34.47 34.11 33.17 32.35 31.26 30.22 29.10 27.94 26.68 25.21 22.56 20.98 20.00 19.56 19.17 18.53 17.80 17.11 16.84 16.81 16.96 17.27 17.28 17.14 17.00 16.90 17.39
35.27 36.24 37.13 37.78 37.86 37.78 37.69 37.61 37.34 37.14 36.95 36.82 36.26 35.81 35.59 35.19 34.95 34.87 34.84 34.68 34.25 33.90 33.58 33.42 33.26 32.91 32.59 32.72 32.59 32.28 31.80 30.96 30.47 30.25 30.19 30.67 30.96 31.07 30.94 30.85 31.74 33.11 33.95 33.19 32.30 31.40 30.32 29.28 28.17 27.07 25.46 23.40 21.21 19.97 19.15 18.51 17.99 17.40 16.83 16.47 16.28 16.26 16.35 16.59 16.50 16.36 16.39 16.50 16.68
35.86 35.69 35.55 35.69 36.66 36.85 36.83 36.77 36.52 36.33 35.94 35.21 34.71 34.53 34.65 35.00 35.05 35.12 35.03 34.49 33.95 33.45 33.29 33.48 33.39 32.91 32.49 32.21 32.28 31.82 31.21 30.43 29.94 29.85 30.17 30.79 30.83 30.68 30.44 30.28 31.04 32.17 32.93 32.37 31.40 30.55 29.51 28.51 27.36 26.15 24.29 21.77 19.95 19.09 18.58 18.06 17.48 16.84 16.33 16.07 15.79 15.83 15.94 16.26 16.31 16.08 15.84 15.82 15.88
36.25 35.31 34.41 34.50 35.89 36.25 36.30 36.30 35.83 35.53 34.93 33.98 33.82 33.95 34.23 34.75 34.80 34.95 34.96 34.45 33.65 33.05 32.85 33.14 33.05 32.57 32.04 31.69 31.43 31.10 30.63 30.33 29.93 29.87 30.11 30.65 30.54 30.31 29.93 29.91 30.17 30.79 31.37 31.43 30.64 29.80 28.85 27.86 26.68 25.09 22.97 20.16 18.93 18.31 17.91 17.58 17.13 16.45 15.78 15.27 14.85 14.66 14.82 15.23 15.36 15.41 15.42 15.27 15.73
36.56 35.31 34.41 34.70 35.81 36.04 35.80 35.83 35.39 34.88 34.34 33.92 34.12 34.42 34.67 34.74 34.78 34.69 34.65 34.02 33.49 32.92 32.68 32.83 32.58 32.11 31.71 31.37 30.79 30.32 29.99 30.15 29.99 30.09 30.11 30.23 30.13 29.91 29.58 29.13 29.13 29.38 29.95 30.55 29.95 29.17 28.26 27.41 26.10 24.34 22.02 19.19 18.47 18.05 17.68 17.18 16.49 16.02 15.51 14.82 14.14 13.75 13.72 13.88 14.12 14.44 14.93 15.45 18.05
36.99 36.31 35.63 35.81 36.06 35.89 35.71 35.56 35.00 34.59 34.30 34.39 34.62 34.82 34.92 34.97 34.98 34.91 34.76 34.26 33.86 33.37 32.89 32.68 32.41 31.99 31.45 30.83 30.07 29.45 29.14 29.54 29.92 30.03 30.04 29.78 29.82 29.71 29.32 28.52 28.15 28.42 28.97 29.86 29.43 28.68 27.86 27.07 25.84 24.39 22.30 19.60 18.63 18.14 17.64 16.86 15.78 15.23 14.80 14.37 13.98 13.43 13.10 13.10 13.43 13.58 13.93 14.93 21.08
37.35 37.09 36.74 36.73 36.44 36.12 35.93 35.74 35.08 34.72 34.74 34.99 34.91 34.85 34.84 35.14 35.30 35.37 35.07 34.45 34.19 33.67 33.22 32.98 32.66 32.00 31.12 30.03 29.28 28.62 28.38 28.76 29.21 29.62 29.71 29.55 29.95 29.98 29.41 27.74 27.48 27.67 28.25 29.26 29.00 28.37 27.67 26.82 25.76 24.48 22.52 19.60 18.74 18.24 17.62 16.67 15.59 14.73 14.20 14.03 14.07 13.63 12.97 12.60 12.71 12.60 12.57 12.57 17.79
37.46 37.36 37.22 37.20 36.98 36.68 36.44 36.06 35.50 35.20 35.24 35.34 35.14 35.07 35.21 35.54 35.66 35.51 35.00 34.14 33.88 33.56 33.46 33.55 32.88 31.68 30.45 29.29 28.48 27.97 27.70 27.87 28.35 28.84 29.25 29.39 29.77 29.78 28.93 27.13 26.90 26.98 27.42 28.43 28.60 28.20 27.58 26.77 25.76 24.51 22.56 19.54 18.60 18.06 17.62 16.80 15.59 14.37 13.63 13.22 13.47 13.45 13.12 12.41 12.02 11.69 11.40 10.98 11.68
MSLP
1006.36 1006.52 1006.80 1007.16 1007.56 1007.84 1008.04 1008.24 1008.48 1008.80 1009.04 1009.24 1009.52 1009.76 1010.00 1010.24 1010.48 1010.64 1010.84 1011.08 1011.20 1011.32 1011.52 1011.80 1012.12 1012.44 1012.68 1012.84 1013.08 1013.48 1013.88 1014.20 1014.28 1014.36 1014.36 1014.48 1014.68 1014.96 1015.32 1015.64 1015.80 1015.96 1016.12 1016.40 1016.60 1016.80 1017.08 1017.36 1017.56 1017.72 1017.88 1017.96 1018.08 1018.28 1018.48 1018.60 1018.76 1018.96 1019.20 1019.36 1019.56 1019.68 1019.80 1020.00 1020.24 1020.48 1020.64 1020.80 1020.96
1006.64 1006.92 1007.20 1007.56 1007.80 1008.00 1008.16 1008.36 1008.72 1009.08 1009.36 1009.68 1010.04 1010.36 1010.56 1010.64 1010.76 1010.96 1011.24 1011.60 1011.68 1011.76 1011.96 1012.24 1012.40 1012.60 1012.80 1013.08 1013.36 1013.72 1014.08 1014.28 1014.32 1014.36 1014.44 1014.64 1014.96 1015.28 1015.68 1016.12 1016.36 1016.52 1016.56 1016.64 1016.84 1017.12 1017.48 1017.72 1017.88 1018.00 1018.08 1018.20 1018.28 1018.48 1018.64 1018.80 1018.96 1019.08 1019.28 1019.52 1019.68 1019.76 1019.92 1020.16 1020.36 1020.56 1020.72 1020.88 1021.00
1006.84 1007.12 1007.40 1007.68 1007.84 1007.96 1008.08 1008.36 1008.76 1009.16 1009.60 1010.00 1010.40 1010.80 1011.04 1011.12 1011.16 1011.32 1011.64 1012.00 1012.08 1012.12 1012.24 1012.40 1012.56 1012.64 1012.84 1013.20 1013.56 1013.92 1014.24 1014.36 1014.36 1014.36 1014.40 1014.64 1015.00 1015.36 1015.80 1016.20 1016.52 1016.72 1016.80 1016.96 1017.20 1017.48 1017.72 1017.88 1017.96 1018.08 1018.12 1018.24 1018.36 1018.60 1018.80 1018.96 1019.04 1019.12 1019.36 1019.56 1019.72 1019.84 1020.00 1020.24 1020.48 1020.64 1020.76 1020.88 1021.00
1006.84 1007.16 1007.48 1007.68 1007.76 1007.80 1007.96 1008.24 1008.64 1009.08 1009.56 1010.08 1010.52 1011.00 1011.36 1011.60 1011.60 1011.72 1011.96 1012.24 1012.28 1012.32 1012.36 1012.44 1012.60 1012.72 1012.92 1013.20 1013.60 1014.00 1014.32 1014.44 1014.44 1014.44 1014.48 1014.60 1014.92 1015.36 1015.80 1016.32 1016.80 1017.16 1017.36 1017.52 1017.68 1017.80 1017.96 1018.04 1018.08 1018.16 1018.24 1018.32 1018.48 1018.64 1018.80 1018.96 1019.00 1019.12 1019.36 1019.56 1019.76 1019.92 1020.12 1020.36 1020.52 1020.64 1020.72 1020.84 1020.96
1006.80 1007.08 1007.32 1007.56 1007.68 1007.76 1007.92 1008.12 1008.48 1008.92 1009.40 1009.92 1010.44 1011.08 1011.56 1011.88 1012.00 1012.08 1012.20 1012.36 1012.40 1012.36 1012.40 1012.48 1012.60 1012.80 1013.00 1013.24 1013.60 1014.00 1014.36 1014.60 1014.80 1014.80 1014.80 1014.92 1015.12 1015.52 1016.04 1016.56 1017.08 1017.44 1017.68 1017.76 1017.84 1017.96 1018.08 1018.16 1018.24 1018.36 1018.40 1018.40 1018.48 1018.64 1018.80 1018.88 1018.96 1019.12 1019.36 1019.60 1019.80 1019.96 1020.16 1020.36 1020.52 1020.60 1020.64 1020.80 1020.96
1006.68 1006.80 1007.00 1007.16 1007.32 1007.56 1007.80 1008.08 1008.36 1008.72 1009.20 1009.68 1010.12 1010.72 1011.36 1011.80 1012.08 1012.28 1012.44 1012.56 1012.52 1012.44 1012.40 1012.48 1012.56 1012.72 1012.96 1013.24 1013.56 1013.96 1014.32 1014.60 1014.76 1014.80 1014.92 1015.08 1015.32 1015.68 1016.08 1016.56 1017.00 1017.24 1017.40 1017.52 1017.64 1017.80 1017.96 1018.08 1018.24 1018.36 1018.44 1018.44 1018.56 1018.68 1018.76 1018.76 1018.92 1019.16 1019.40 1019.68 1019.84 1020.00 1020.16 1020.36 1020.48 1020.56 1020.64 1020.80 1020.96
1006.52 1006.64 1006.80 1006.96 1007.04 1007.16 1007.40 1007.80 1008.12 1008.48 1008.80 1009.16 1009.52 1010.08 1010.72 1011.28 1011.80 1012.20 1012.48 1012.60 1012.60 1012.52 1012.40 1012.40 1012.40 1012.56 1012.80 1013.20 1013.56 1013.96 1014.24 1014.40 1014.44 1014.56 1014.80 1015.04 1015.28 1015.60 1016.00 1016.40 1016.72 1016.96 1017.08 1017.20 1017.36 1017.52 1017.72 1017.88 1018.08 1018.24 1018.36 1018.40 1018.56 1018.68 1018.72 1018.72 1018.88 1019.16 1019.48 1019.72 1019.88 1020.00 1020.12 1020.28 1020.36 1020.52 1020.64 1020.80 1021.00
1006.56 1006.52 1006.64 1006.88 1007.00 1007.08 1007.28 1007.52 1007.84 1008.20 1008.52 1008.84 1009.20 1009.56 1010.04 1010.64 1011.24 1011.72 1012.16 1012.48 1012.52 1012.44 1012.32 1012.24 1012.20 1012.32 1012.60 1013.08 1013.48 1013.76 1013.96 1014.08 1014.20 1014.40 1014.64 1014.96 1015.24 1015.56 1015.88 1016.20 1016.44 1016.64 1016.80 1016.96 1017.16 1017.36 1017.52 1017.64 1017.80 1017.96 1018.12 1018.32 1018.52 1018.64 1018.72 1018.80 1018.96 1019.20 1019.48 1019.72 1019.92 1020.00 1020.08 1020.24 1020.36 1020.48 1020.64 1020.84 1021.08
1006.80 1006.68 1006.68 1006.76 1006.92 1007.08 1007.24 1007.44 1007.64 1007.96 1008.36 1008.80 1009.08 1009.36 1009.72 1010.16 1010.56 1011.00 1011.44 1011.88 1012.08 1012.12 1012.08 1012.08 1012.08 1012.12 1012.36 1012.80 1013.20 1013.52 1013.72 1013.88 1014.08 1014.28 1014.56 1014.88 1015.20 1015.48 1015.76 1016.04 1016.24 1016.44 1016.64 1016.80 1016.96 1017.08 1017.24 1017.44 1017.56 1017.76 1017.92 1018.08 1018.36 1018.60 1018.76 1018.80 1018.96 1019.24 1019.48 1019.68 1019.84 1020.04 1020.16 1020.24 1020.36 1020.52 1020.68 1020.92 1021.12
1006.80 1006.80 1006.84 1006.88 1006.92 1007.00 1007.12 1007.28 1007.44 1007.68 1008.04 1008.56 1008.96 1009.24 1009.52 1009.84 1010.12 1010.40 1010.68 1011.04 1011.44 1011.72 1011.88 1012.00 1012.08 1012.12 1012.32 1012.64 1013.00 1013.36 1013.64 1013.80 1014.04 1014.28 1014.56 1014.84 1015.08 1015.36 1015.60 1015.80 1016.04 1016.24 1016.44 1016.64 1016.76 1016.92 1017.08 1017.28 1017.52 1017.68 1017.84 1018.08 1018.32 1018.52 1018.68 1018.80 1018.96 1019.20 1019.44 1019.64 1019.80 1020.00 1020.20 1020.32 1020.40 1020.56 1020.76 1020.96 1021.24
1006.60 1006.72 1006.88 1006.96 1007.00 1007.04 1007.12 1007.28 1007.40 1007.56 1007.92 1008.36 1008.80 1009.16 1009.44 1009.64 1009.84 1010.08 1010.24 1010.52 1010.88 1011.24 1011.52 1011.80 1011.96 1012.08 1012.28 1012.60 1012.92 1013.24 1013.56 1013.80 1014.04 1014.24 1014.52 1014.80 1015.04 1015.24 1015.36 1015.56 1015.80 1016.00 1016.24 1016.44 1016.64 1016.80 1016.96 1017.20 1017.40 1017.68 1017.92 1018.16 1018.36 1018.52 1018.64 1018.76 1018.92 1019.16 1019.40 1019.68 1019.80 1020.00 1020.24 1020.44 1020.56 1020.72 1020.92 1021.08 1021.32
1006.36 1006.52 1006.72 1006.92 1006.96 1007.04 1007.20 1007.36 1007.48 1007.64 1007.88 1008.24 1008.72 1009.08 1009.32 1009.48 1009.64 1009.84 1010.04 1010.24 1010.48 1010.80 1011.12 1011.40 1011.60 1011.80 1012.04 1012.40 1012.80 1013.16 1013.44 1013.72 1013.92 1014.16 1014.40 1014.64 1014.84 1015.00 1015.16 1015.36 1015.60 1015.80 1016.08 1016.28 1016.44 1016.64 1016.84 1017.08 1017.36 1017.68 1017.96 1018.20 1018.36 1018.48 1018.60 1018.72 1018.96 1019.16 1019.40 1019.68 1019.88 1020.08 1020.36 1020.60 1020.80 1020.92 1021.08 1021.28 1021.40
1006.08 1006.36 1006.60 1006.80 1006.88 1006.96 1007.12 1007.36 1007.52 1007.68 1007.88 1008.20 1008.56 1008.88 1009.08 1009.24 1009.44 1009.60 1009.80 1009.96 1010.16 1010.40 1010.76 1011.08 1011.24 1011.48 1011.72 1012.08 1012.56 1012.92 1013.24 1013.52 1013.80 1014.00 1014.20 1014.40 1014.60 1014.80 1014.96 1015.20 1015.40 1015.68 1015.92 1016.16 1016.32 1016.48 1016.72 1017.04 1017.28 1017.60 1017.92 1018.16 1018.32 1018.44 1018.52 1018.64 1018.88 1019.16 1019.44 1019.72 1019.96 1020.24 1020.52 1020.76 1020.96 1021.08 1021.24 1021.36 1021.52
1005.84 1006.12 1006.40 1006.64 1006.76 1006.80 1006.96 1007.28 1007.52 1007.68 1007.80 1008.08 1008.36 1008.60 1008.80 1009.08 1009.28 1009.40 1009.52 1009.68 1009.92 1010.16 1010.52 1010.84 1011.12 1011.32 1011.52 1011.80 1012.20 1012.52 1012.88 1013.24 1013.52 1013.76 1013.96 1014.20 1014.40 1014.64 1014.88 1015.08 1015.28 1015.52 1015.72 1015.96 1016.20 1016.40 1016.64 1016.96 1017.28 1017.60 1017.84 1018.08 1018.32 1018.48 1018.56 1018.68 1018.92 1019.20 1019.48 1019.76 1020.04 1020.32 1020.60 1020.84 1021.08 1021.20 1021.32 1021.48 1021.64
1005.68 1005.88 1006.12 1006.36 1006.64 1006.68 1006.80 1007.08 1007.28 1007.48 1007.64 1007.80 1008.08 1008.32 1008.64 1008.92 1009.20 1009.32 1009.36 1009.52 1009.76 1009.96 1010.28 1010.64 1010.96 1011.24 1011.44 1011.68 1011.88 1012.20 1012.52 1012.92 1013.24 1013.52 1013.80 1014.08 1014.28 1014.52 1014.76 1014.96 1015.20 1015.36 1015.60 1015.84 1016.12 1016.36 1016.60 1016.96 1017.24 1017.52 1017.80 1018.08 1018.32 1018.52 1018.64 1018.80 1019.00 1019.24 1019.52 1019.80 1020.08 1020.36 1020.64 1020.92 1021.08 1021.24 1021.36 1021.48 1021.64
1005.48 1005.56 1005.72 1005.92 1006.20 1006.40 1006.60 1006.76 1006.96 1007.16 1007.32 1007.48 1007.72 1008.04 1008.36 1008.64 1008.96 1009.16 1009.28 1009.44 1009.64 1009.88 1010.16 1010.48 1010.80 1011.08 1011.36 1011.52 1011.68 1011.96 1012.28 1012.64 1013.00 1013.28 1013.56 1013.88 1014.16 1014.40 1014.64 1014.88 1015.12 1015.28 1015.52 1015.76 1016.08 1016.36 1016.64 1016.96 1017.24 1017.52 1017.80 1018.08 1018.36 1018.56 1018.76 1018.96 1019.16 1019.36 1019.60 1019.80 1020.08 1020.36 1020.64 1020.88 1021.08 1021.20 1021.32 1021.40 1021.52
1005.28 1005.28 1005.36 1005.48 1005.64 1005.92 1006.16 1006.28 1006.52 1006.80 1006.96 1007.12 1007.36 1007.68 1007.96 1008.36 1008.68 1008.96 1009.12 1009.28 1009.40 1009.68 1009.96 1010.28 1010.56 1010.84 1011.16 1011.44 1011.68 1011.88 1012.20 1012.52 1012.80 1013.08 1013.36 1013.68 1013.96 1014.24 1014.52 1014.76 1014.96 1015.16 1015.36 1015.64 1016.00 1016.36 1016.72 1017.04 1017.32 1017.60 1017.88 1018.16 1018.40 1018.64 1018.84 1019.04 1019.28 1019.52 1019.76 1019.96 1020.20 1020.44 1020.64 1020.80 1020.96 1021.12 1021.24 1021.32 1021.44
1005.08 1005.04 1005.08 1005.16 1005.24 1005.44 1005.64 1005.80 1006.08 1006.36 1006.68 1006.88 1007.08 1007.36 1007.64 1007.96 1008.36 1008.64 1008.92 1009.08 1009.12 1009.36 1009.68 1010.04 1010.32 1010.60 1010.92 1011.24 1011.60 1011.84 1012.08 1012.40 1012.64 1012.92 1013.20 1013.48 1013.80 1014.08 1014.36 1014.60 1014.80 1014.96 1015.24 1015.52 1015.92 1016.28 1016.68 1017.08 1017.40 1017.68 1018.00 1018.28 1018.52 1018.72 1018.96 1019.16 1019.36 1019.64 1019.84 1020.08 1020.28 1020.48 1020.64 1020.80 1020.92 1021.04 1021.12 1021.24 1021.40
1004.76 1004.80 1004.84 1004.88 1004.96 1005.08 1005.24 1005.44 1005.68 1006.08 1006.40 1006.64 1006.88 1007.12 1007.40 1007.68 1007.96 1008.28 1008.60 1008.84 1008.92 1009.00 1009.28 1009.68 1010.04 1010.36 1010.64 1011.08 1011.44 1011.76 1012.00 1012.28 1012.52 1012.76 1013.04 1013.32 1013.68 1014.00 1014.24 1014.48 1014.64 1014.80 1015.08 1015.44 1015.80 1016.20 1016.64 1017.04 1017.40 1017.76 1018.08 1018.36 1018.64 1018.84 1019.08 1019.28 1019.52 1019.72 1019.92 1020.08 1020.32 1020.52 1020.64 1020.80 1020.92 1021.00 1021.08 1021.20 1021.36
1004.36 1004.48 1004.56 1004.56 1004.68 1004.80 1004.96 1005.12 1005.36 1005.72 1006.12 1006.48 1006.76 1007.00 1007.24 1007.48 1007.68 1007.96 1008.24 1008.52 1008.64 1008.76 1008.96 1009.32 1009.72 1010.08 1010.52 1010.92 1011.32 1011.68 1011.96 1012.20 1012.44 1012.64 1012.96 1013.28 1013.64 1013.96 1014.24 1014.36 1014.52 1014.72 1015.00 1015.36 1015.80 1016.20 1016.60 1017.00 1017.40 1017.76 1018.08 1018.36 1018.68 1018.96 1019.16 1019.36 1019.60 1019.80 1019.96 1020.16 1020.36 1020.52 1020.64 1020.80 1020.92 1021.00 1021.08 1021.20 1021.28
1003.96 1004.04 1004.12 1004.24 1004.40 1004.52 1004.64 1004.84 1005.08 1005.36 1005.80 1006.24 1006.60 1006.88 1007.08 1007.32 1007.52 1007.76 1007.96 1008.20 1008.40 1008.56 1008.76 1009.00 1009.40 1009.84 1010.32 1010.76 1011.16 1011.52 1011.88 1012.12 1012.36 1012.60 1012.92 1013.24 1013.64 1013.96 1014.12 1014.24 1014.40 1014.64 1015.00 1015.36 1015.80 1016.20 1016.60 1017.00 1017.36 1017.72 1018.08 1018.36 1018.64 1018.88 1019.12 1019.36 1019.60 1019.80 1020.00 1020.24 1020.36 1020.52 1020.68 1020.80 1020.96 1021.08 1021.16 1021.24 1021.32
1003.64 1003.64 1003.72 1003.92 1004.08 1004.28 1004.48 1004.64 1004.84 1005.12 1005.48 1005.88 1006.28 1006.64 1006.92 1007.16 1007.36 1007.60 1007.80 1008.04 1008.28 1008.44 1008.56 1008.80 1009.16 1009.64 1010.08 1010.56 1010.96 1011.36 1011.76 1012.08 1012.36 1012.60 1012.92 1013.24 1013.60 1013.88 1014.04 1014.08 1014.28 1014.64 1015.04 1015.40 1015.80 1016.20 1016.60 1016.96 1017.32 1017.68 1017.96 1018.24 1018.52 1018.80 1019.04 1019.28 1019.56 1019.80 1020.04 1020.24 1020.48 1020.64 1020.76 1020.88 1021.00 1021.12 1021.24 1021.28 1021.36
1003.44 1003.36 1003.40 1003.64 1003.84 1004.08 1004.36 1004.56 1004.76 1004.96 1005.28 1005.60 1005.96 1006.36 1006.64 1006.96 1007.24 1007.48 1007.76 1008.00 1008.24 1008.36 1008.52 1008.72 1009.08 1009.52 1009.96 1010.40 1010.80 1011.24 1011.68 1012.08 1012.36 1012.64 1012.96 1013.24 1013.64 1013.88 1013.96 1014.00 1014.24 1014.56 1015.00 1015.36 1015.76 1016.08 1016.52 1016.92 1017.28 1017.60 1017.88 1018.20 1018.48 1018.72 1018.96 1019.24 1019.48 1019.80 1020.08 1020.28 1020.52 1020.68 1020.84 1020.96 1021.08 1021.20 1021.28 1021.32 1021.36
1003.56 1003.56 1003.56 1003.56 1003.76 1004.00 1004.24 1004.48 1004.64 1004.88 1005.12 1005.40 1005.68 1006.00 1006.36 1006.72 1007.08 1007.40 1007.72 1007.96 1008.16 1008.32 1008.52 1008.76 1009.08 1009.52 1009.96 1010.36 1010.76 1011.16 1011.52 1011.96 1012.36 1012.72 1013.00 1013.32 1013.60 1013.80 1013.88 1013.96 1014.16 1014.48 1014.84 1015.24 1015.56 1015.92 1016.32 1016.76 1017.20 1017.52 1017.80 1018.12 1018.36 1018.64 1018.88 1019.12 1019.40 1019.68 1019.96 1020.24 1020.52 1020.76 1020.96 1021.08 1021.16 1021.24 1021.32 1021.36 1021.40
1003.96 1003.96 1003.84 1003.76 1003.88 1004.08 1004.24 1004.40 1004.64 1004.80 1005.00 1005.24 1005.48 1005.76 1006.08 1006.52 1006.88 1007.24 1007.60 1007.84 1008.08 1008.28 1008.52 1008.80 1009.20 1009.60 1010.04 1010.36 1010.76 1011.08 1011.52 1011.88 1012.24 1012.64 1013.00 1013.36 1013.52 1013.64 1013.72 1013.84 1014.08 1014.40 1014.76 1015.08 1015.40 1015.72 1016.08 1016.48 1016.88 1017.28 1017.68 1018.04 1018.36 1018.60 1018.84 1019.08 1019.32 1019.56 1019.84 1020.12 1020.40 1020.68 1020.96 1021.12 1021.24 1021.28 1021.36 1021.36 1021.40
1003.88 1003.84 1003.72 1003.68 1003.80 1004.00 1004.20 1004.40 1004.56 1004.72 1004.92 1005.12 1005.32 1005.60 1005.92 1006.24 1006.68 1007.08 1007.44 1007.80 1008.04 1008.28 1008.56 1008.92 1009.28 1009.72 1010.08 1010.36 1010.72 1011.08 1011.48 1011.80 1012.12 1012.48 1012.84 1013.20 1013.36 1013.44 1013.52 1013.72 1014.04 1014.40 1014.72 1015.00 1015.28 1015.64 1015.96 1016.36 1016.72 1017.08 1017.52 1017.88 1018.24 1018.60 1018.88 1019.12 1019.36 1019.56 1019.80 1020.08 1020.36 1020.64 1020.88 1021.12 1021.28 1021.36 1021.40 1021.44 1021.44
1003.28 1003.24 1003.16 1003.12 1003.40 1003.72 1003.96 1004.24 1004.52 1004.64 1004.80 1005.00 1005.24 1005.52 1005.80 1006.12 1006.52 1006.96 1007.36 1007.68 1008.00 1008.36 1008.68 1009.04 1009.44 1009.80 1010.08 1010.32 1010.64 1011.00 1011.40 1011.80 1012.08 1012.40 1012.68 1012.96 1013.12 1013.24 1013.36 1013.64 1013.96 1014.36 1014.68 1014.96 1015.24 1015.56 1015.96 1016.36 1016.72 1017.08 1017.40 1017.80 1018.12 1018.48 1018.80 1019.12 1019.36 1019.60 1019.80 1020.08 1020.32 1020.52 1020.80 1021.08 1021.28 1021.40 1021.52 1021.52 1021.52
1002.88 1002.80 1002.72 1002.76 1003.00 1003.28 1003.64 1004.00 1004.28 1004.48 1004.64 1004.84 1005.08 1005.36 1005.68 1006.08 1006.52 1006.96 1007.32 1007.64 1007.96 1008.36 1008.76 1009.12 1009.52 1009.80 1010.08 1010.28 1010.56 1010.84 1011.20 1011.60 1011.96 1012.32 1012.56 1012.76 1012.84 1012.96 1013.24 1013.56 1013.96 1014.36 1014.64 1014.88 1015.20 1015.56 1015.96 1016.36 1016.76 1017.08 1017.40 1017.72 1018.08 1018.36 1018.68 1019.04 1019.32 1019.60 1019.84 1020.08 1020.36 1020.56 1020.80 1021.04 1021.24 1021.36 1021.52 1021.56 1021.60
1002.72 1002.60 1002.56 1002.64 1002.76 1002.96 1003.28 1003.68 1003.96 1004.16 1004.36 1004.64 1005.00 1005.36 1005.80 1006.16 1006.56 1006.96 1007.32 1007.68 1008.04 1008.36 1008.76 1009.08 1009.48 1009.80 1010.08 1010.24 1010.48 1010.72 1011.04 1011.40 1011.80 1012.16 1012.44 1012.64 1012.80 1012.96 1013.24 1013.64 1014.08 1014.40 1014.68 1014.96 1015.24 1015.60 1016.00 1016.36 1016.80 1017.12 1017.36 1017.68 1018.04 1018.36 1018.68 1018.96 1019.28 1019.56 1019.84 1020.12 1020.36 1020.60 1020.84 1021.08 1021.28 1021.40 1021.52 1021.64 1021.72
1002.64 1002.48 1002.44 1002.52 1002.64 1002.80 1003.08 1003.36 1003.68 1003.96 1004.24 1004.64 1005.08 1005.48 1005.88 1006.24 1006.64 1007.04 1007.36 1007.68 1007.96 1008.24 1008.52 1008.88 1009.28 1009.68 1009.92 1010.08 1010.36 1010.64 1011.00 1011.32 1011.68 1012.04 1012.36 1012.64 1012.84 1013.08 1013.40 1013.80 1014.20 1014.52 1014.80 1015.04 1015.32 1015.68 1016.08 1016.44 1016.84 1017.16 1017.44 1017.68 1018.00 1018.32 1018.64 1018.96 1019.28 1019.60 1019.88 1020.16 1020.44 1020.64 1020.88 1021.08 1021.32 1021.48 1021.56 1021.68 1021.80
1002.60 1002.52 1002.40 1002.40 1002.52 1002.72 1002.96 1003.24 1003.56 1003.96 1004.36 1004.76 1005.20 1005.60 1006.00 1006.36 1006.68 1007.00 1007.28 1007.56 1007.84 1008.12 1008.44 1008.80 1009.16 1009.44 1009.68 1009.92 1010.24 1010.60 1010.96 1011.32 1011.68 1012.04 1012.36 1012.64 1012.96 1013.32 1013.68 1014.04 1014.36 1014.68 1014.96 1015.16 1015.40 1015.76 1016.12 1016.52 1016.88 1017.20 1017.44 1017.72 1018.00 1018.36 1018.68 1019.00 1019.28 1019.60 1019.96 1020.24 1020.52 1020.76 1020.96 1021.12 1021.36 1021.48 1021.60 1021.68 1021.80
1002.52 1002.52 1002.44 1002.36 1002.48 1002.60 1002.84 1003.20 1003.56 1003.96 1004.40 1004.80 1005.24 1005.68 1006.04 1006.36 1006.72 1007.00 1007.24 1007.52 1007.84 1008.20 1008.52 1008.88 1009.20 1009.36 1009.64 1009.96 1010.28 1010.64 1010.96 1011.36 1011.72 1012.08 1012.36 1012.72 1013.08 1013.48 1013.88 1014.24 1014.60 1014.88 1015.08 1015.24 1015.48 1015.80 1016.20 1016.52 1016.88 1017.20 1017.44 1017.72 1018.08 1018.44 1018.80 1019.08 1019.36 1019.68 1020.00 1020.28 1020.52 1020.76 1020.96 1021.12 1021.36 1021.52 1021.60 1021.68 1021.84
1002.36 1002.44 1002.40 1002.36 1002.40 1002.52 1002.80 1003.12 1003.52 1003.96 1004.36 1004.80 1005.24 1005.64 1006.04 1006.44 1006.80 1007.16 1007.44 1007.68 1007.84 1008.12 1008.48 1008.80 1009.08 1009.32 1009.60 1009.96 1010.32 1010.68 1011.04 1011.36 1011.80 1012.12 1012.52 1012.88 1013.24 1013.60 1014.04 1014.48 1014.80 1015.00 1015.16 1015.32 1015.56 1015.84 1016.24 1016.56 1016.88 1017.20 1017.52 1017.80 1018.20 1018.52 1018.88 1019.20 1019.52 1019.80 1020.08 1020.40 1020.68 1020.88 1021.00 1021.16 1021.36 1021.52 1021.64 1021.76 1021.88
1002.16 1002.32 1002.40 1002.36 1002.48 1002.56 1002.76 1003.00 1003.36 1003.84 1004.36 1004.80 1005.20 1005.56 1005.96 1006.40 1006.84 1007.24 1007.44 1007.56 1007.72 1007.96 1008.24 1008.56 1008.84 1009.16 1009.48 1009.80 1010.20 1010.64 1011.08 1011.44 1011.88 1012.32 1012.72 1013.08 1013.36 1013.68 1014.08 1014.56 1014.88 1015.08 1015.20 1015.36 1015.64 1015.96 1016.24 1016.60 1016.92 1017.24 1017.52 1017.88 1018.28 1018.64 1018.96 1019.28 1019.64 1019.96 1020.24 1020.56 1020.80 1020.96 1021.12 1021.24 1021.40 1021.56 1021.68 1021.84 1021.96
1002.24 1002.36 1002.48 1002.52 1002.56 1002.68 1002.80 1003.00 1003.28 1003.68 1004.16 1004.64 1005.08 1005.52 1005.88 1006.24 1006.64 1006.96 1007.20 1007.32 1007.52 1007.88 1008.24 1008.60 1008.92 1009.24 1009.64 1009.96 1010.28 1010.64 1011.12 1011.60 1012.08 1012.48 1012.84 1013.20 1013.48 1013.80 1014.20 1014.64 1014.96 1015.16 1015.24 1015.44 1015.68 1015.96 1016.32 1016.60 1016.88 1017.20 1017.52 1017.96 1018.36 1018.76 1019.04 1019.36 1019.72 1020.08 1020.36 1020.64 1020.84 1021.04 1021.24 1021.36 1021.52 1021.68 1021.80 1021.96 1022.08
1002.32 1002.48 1002.64 1002.76 1002.72 1002.80 1002.96 1003.08 1003.32 1003.64 1004.00 1004.44 1004.92 1005.32 1005.68 1006.04 1006.36 1006.64 1006.88 1007.08 1007.40 1007.84 1008.36 1008.80 1009.24 1009.68 1010.08 1010.40 1010.64 1010.96 1011.28 1011.72 1012.20 1012.64 1013.00 1013.24 1013.48 1013.84 1014.32 1014.76 1015.08 1015.24 1015.36 1015.52 1015.72 1016.00 1016.32 1016.60 1016.88 1017.20 1017.56 1018.00 1018.44 1018.80 1019.12 1019.44 1019.80 1020.16 1020.44 1020.64 1020.92 1021.08 1021.28 1021.44 1021.60 1021.76 1021.88 1022.00 1022.08
1002.28 1002.36 1002.52 1002.64 1002.64 1002.72 1002.88 1003.08 1003.32 1003.64 1003.96 1004.32 1004.64 1005.00 1005.36 1005.72 1006.08 1006.40 1006.68 1006.96 1007.36 1007.92 1008.48 1009.00 1009.56 1010.00 1010.36 1010.60 1010.84 1011.12 1011.44 1011.80 1012.24 1012.72 1013.08 1013.24 1013.48 1013.80 1014.28 1014.80 1015.12 1015.36 1015.44 1015.52 1015.76 1016.04 1016.32 1016.56 1016.84 1017.20 1017.56 1018.00 1018.48 1018.84 1019.20 1019.52 1019.88 1020.24 1020.52 1020.80 1021.00 1021.24 1021.36 1021.52 1021.68 1021.80 1021.96 1022.08 1022.12
1002.08 1002.16 1002.20 1002.24 1002.32 1002.52 1002.72 1002.96 1003.24 1003.60 1003.92 1004.20 1004.48 1004.72 1005.00 1005.36 1005.80 1006.20 1006.52 1006.84 1007.28 1007.92 1008.56 1009.16 1009.68 1010.12 1010.40 1010.64 1010.88 1011.24 1011.64 1011.96 1012.32 1012.64 1013.00 1013.24 1013.48 1013.80 1014.24 1014.76 1015.12 1015.36 1015.52 1015.60 1015.80 1016.04 1016.28 1016.52 1016.84 1017.16 1017.52 1017.96 1018.40 1018.80 1019.20 1019.60 1019.96 1020.32 1020.60 1020.84 1021.12 1021.36 1021.52 1021.64 1021.76 1021.88 1021.96 1022.08 1022.08
1001.68 1001.76 1001.72 1001.72 1001.92 1002.24 1002.64 1002.92 1003.20 1003.48 1003.76 1003.96 1004.28 1004.56 1004.84 1005.16 1005.52 1005.92 1006.28 1006.68 1007.16 1007.76 1008.44 1009.08 1009.68 1010.08 1010.44 1010.72 1011.00 1011.40 1011.84 1012.20 1012.44 1012.64 1012.88 1013.16 1013.44 1013.76 1014.16 1014.60 1015.00 1015.32 1015.52 1015.64 1015.80 1016.04 1016.28 1016.52 1016.80 1017.12 1017.48 1017.84 1018.28 1018.72 1019.12 1019.56 1019.96 1020.36 1020.64 1020.92 1021.16 1021.36 1021.56 1021.68 1021.80 1021.92 1022.04 1022.08 1021.96
1001.28 1001.36 1001.36 1001.36 1001.52 1002.00 1002.52 1002.96 1003.20 1003.36 1003.52 1003.72 1004.04 1004.36 1004.68 1004.96 1005.24 1005.64 1006.12 1006.64 1007.16 1007.68 1008.32 1008.96 1009.52 1010.04 1010.44 1010.80 1011.12 1011.52 1012.00 1012.40 1012.68 1012.80 1012.84 1013.08 1013.40 1013.76 1014.08 1014.52 1014.88 1015.24 1015.48 1015.68 1015.80 1016.04 1016.28 1016.52 1016.80 1017.08 1017.44 1017.84 1018.24 1018.64 1019.08 1019.52 1019.96 1020.36 1020.68 1020.92 1021.12 1021.36 1021.56 1021.72 1021.84 1021.96 1022.08 1022.16 1022.08
1001.00 1001.08 1001.16 1001.12 1001.24 1001.64 1002.24 1002.84 1003.20 1003.32 1003.36 1003.52 1003.76 1004.08 1004.40 1004.76 1005.12 1005.56 1006.08 1006.68 1007.28 1007.84 1008.40 1008.96 1009.52 1010.04 1010.48 1010.92 1011.24 1011.56 1012.04 1012.52 1012.88 1012.96 1012.96 1013.08 1013.48 1013.80 1014.12 1014.48 1014.84 1015.16 1015.48 1015.68 1015.84 1016.04 1016.28 1016.52 1016.76 1017.00 1017.36 1017.80 1018.20 1018.60 1019.00 1019.48 1019.88 1020.32 1020.64 1020.88 1021.08 1021.32 1021.52 1021.76 1021.88 1022.00 1022.08 1022.20 1022.24
Wind_Speed
9 8 7 6 5 5 5 6 6 7 7 7 6 5 4 4 4 4 4 4 4 5 6 7 7 7 8 10 12 12 11 10 10 10 11 12 11 11 10 9 8 8 8 8 7 6 6 5 4 3 3 3 4 4 4 4 5 6 6 5 5 5 6 8 7 6 6 5 4
12 11 9 8 6 6 6 7 7 8 8 7 6 6 5 5 5 6 5 5 5 6 7 7 7 8 10 11 11 10 9 9 10 11 12 12 12 11 9 7 6 6 6 7 7 5 4 4 3 3 3 3 4 5 4 4 5 6 7 7 5 4 5 6 6 6 6 5 4
14 12 10 8 7 7 7 8 9 10 9 8 7 6 6 5 5 6 6 6 7 7 7 7 7 9 11 11 9 8 8 8 9 10 11 12 12 11 10 8 7 7 6 5 5 4 3 3 3 3 3 4 5 5 5 4 5 6 7 6 4 4 4 5 4 4 4 4 4
15 12 10 8 8 8 9 9 11 12 11 9 8 7 6 5 5 5 6 7 8 8 7 7 7 8 9 10 10 9 9 9 10 11 12 13 13 13 12 10 8 6 5 4 3 3 3 3 2 3 3 5 6 6 5 4 5 5 5 4 4 4 4 4 3 3 3 3 3
13 11 9 8 9 9 9 10 13 13 12 10 9 8 6 4 4 4 5 6 6 7 8 9 8 8 9 11 12 12 12 11 11 11 12 13 13 12 11 10 8 6 5 4 4 4 4 4 3 3 4 5 5 5 5 6 6 5 4 3 3 4 4 4 3 3 3 3 3
10 10 10 10 11 11 11 12 14 14 13 12 12 11 8 5 4 5 5 5 7 9 11 11 10 10 11 12 12 11 11 11 11 12 13 13 12 12 11 10 10 9 8 8 8 8 7 6 4 4 4 4 4 4 5 7 7 6 5 4 3 3 3 4 3 3 4 4 4
9 10 10 10 11 12 13 14 15 15 14 14 16 16 14 11 9 9 8 7 8 9 10 10 11 12 12 11 10 10 10 10 11 13 14 13 13 12 12 11 11 10 9 9 9 9 8 7 5 5 4 4 4 5 5 6 7 6 6 4 3 3 3 4 3 3 5 6 6
7 9 10 10 11 12 13 14 14 13 12 12 15 17 18 17 16 14 12 9 8 8 9 9 13 14 13 12 10 10 10 11 11 11 12 12 13 13 12 11 10 9 9 9 9 9 8 6 5 5 5 4 4 4 5 7 7 7 7 5 4 3 3 3 3 4 5 7 7
5 7 9 10 11 11 12 13 14 13 12 12 15 17 19 19 19 18 15 12 10 9 9 10 13 15 15 13 11 10 9 9 10 10 11 11 12 12 11 10 9 9 8 8 9 9 8 6 5 5 5 5 5 5 6 7 8 8 7 5 4 3 3 3 4 5 6 7 7
6 6 7 9 10 11 12 13 14 14 15 14 15 17 18 18 18 17 15 12 11 10 10 10 13 14 14 13 11 10 9 8 9 10 10 10 11 11 10 9 9 8 8 7 7 8 8 6 5 5 5 5 6 6 7 8 9 8 7 4 4 5 5 4 5 6 6 7 7
8 8 8 9 10 11 12 12 12 13 14 15 15 16 16 17 17 15 14 12 12 13 13 13 14 14 13 12 10 9 9 8 9 10 11 11 11 11 10 9 9 9 8 7 7 7 6 6 6 6 6 5 6 7 7 8 9 8 7 5 6 6 6 5 5 6 6 7 7
10 10 10 10 12 12 12 11 11 12 13 15 15 15 15 15 16 15 14 14 15 15 15 15 15 15 13 11 10 10 9 9 10 11 11 11 11 11 10 9 9 9 9 8 7 6 6 7 7 8 8 7 6 6 7 9 9 9 8 6 7 7 7 6 6 5 5 6 7
11 11 12 12 14 14 13 11 10 11 12 14 15 14 14 14 15 15 15 16 15 15 14 15 15 14 13 12 11 11 10 10 11 11 11 11 11 10 10 9 9 10 9 8 7 7 7 7 9 9 9 7 6 6 7 9 9 9 9 8 8 7 7 7 6 6 6 6 7
13 13 14 14 14 14 13 12 10 10 12 14 14 13 13 13 14 14 14 15 15 14 13 13 12 12 12 13 13 13 13 12 12 12 11 11 10 10 9 9 9 9 9 8 7 8 8 8 9 9 9 8 7 7 7 9 9 9 9 9 9 8 8 7 7 7 7 7 7
14 15 16 15 15 13 12 12 10 10 11 13 13 12 12 12 12 12 12 14 14 13 13 12 11 11 11 13 14 14 14 13 13 12 12 11 10 10 9 9 9 9 9 8 7 8 9 9 9 9 9 9 8 8 8 8 8 8 9 9 9 9 8 8 7 7 8 8 7
15 16 17 17 16 14 13 12 9 10 11 12 13 12 12 11 11 12 12 13 13 12 12 12 11 11 12 13 14 14 14 13 13 13 12 11 11 10 9 9 9 9 9 9 9 8 8 8 9 9 9 9 8 8 8 8 8 8 8 9 9 9 9 8 8 7 8 8 7
14 15 16 17 17 16 15 13 10 10 11 12 13 13 12 12 11 12 12 14 13 12 13 14 13 12 12 12 12 13 13 12 12 12 12 12 11 11 10 10 10 10 10 11 10 9 8 7 7 8 8 8 8 8 8 8 8 8 8 8 8 8 8 8 7 7 7 8 7
15 15 16 16 17 17 16 15 13 12 12 13 14 13 13 13 13 13 13 14 14 15 16 16 14 13 13 13 12 11 11 12 12 12 12 12 12 11 11 11 11 11 11 11 11 10 10 9 8 7 7 8 7 7 8 8 8 8 8 8 8 7 7 7 7 7 7 7 7
16 15 16 16 17 17 17 16 15 14 13 14 14 14 14 14 15 15 15 16 16 17 18 17 15 14 13 14 12 11 10 11 12 12 12 12 11 11 11 11 11 11 11 11 11 11 10 10 9 8 8 8 7 7 8 8 8 8 8 8 7 7 7 7 6 6 7 7 7
16 16 17 17 17 17 17 17 16 15 14 14 14 14 15 15 16 17 17 18 18 18 18 17 15 14 14 14 13 11 10 10 11 12 12 11 11 11 11 11 11 11 11 11 11 11 10 10 10 9 9 9 9 9 8 8 8 8 8 7 7 7 7 6 6 6 6 6 6
15 17 18 17 17 17 17 17 17 16 16 15 16 16 16 16 16 17 18 18 17 17 17 17 16 15 15 14 14 13 11 9 10 11 12 11 11 11 11 11 11 11 11 10 11 11 11 10 10 10 10 10 10 10 9 9 9 8 7 6 6 6 6 6 5 5 5 5 5
12 15 17 17 17 17 17 17 17 17 17 17 17 16 16 16 16 17 17 17 16 16 16 15 16 16 16 15 15 14 12 9 10 11 11 11 11 10 10 11 11 11 11 11 11 11 11 10 10 10 10 10 10 10 10 10 9 8 8 7 7 6 5 5 4 4 4 4 4
9 10 13 15 15 15 16 16 16 16 17 17 17 17 16 16 16 16 16 16 15 14 14 13 14 15 16 15 15 14 12 10 10 10 11 11 10 10 10 10 12 12 11 10 10 11 11 10 10 10 10 10 10 10 10 10 10 9 8 8 7 6 5 4 4 3 3 3 3
12 11 9 9 12 13 14 15 15 15 16 16 17 17 16 16 16 16 16 16 15 14 13 12 13 14 15 15 15 14 13 12 12 11 11 11 11 11 10 10 11 11 10 9 10 11 11 9 9 9 9 9 9 10 10 10 10 9 9 9 8 6 5 4 3 3 3 3 4
15 14 12 9 10 11 12 13 14 14 15 15 16 16 16 16 16 16 15 15 15 14 13 12 12 13 13 13 14 14 13 13 13 13 12 11 11 11 10 9 9 8 8 8 12 14 13 11 10 9 8 8 9 8 9 9 9 9 9 9 8 7 6 5 4 3 3 3 4
15 16 15 13 12 12 12 13 13 14 15 15 15 16 16 16 16 16 15 15 15 14 13 12 12 12 12 12 13 13 12 12 13 13 13 12 12 11 10 9 8 7 7 10 15 16 16 14 13 11 9 8 8 8 8 8 8 9 9 9 8 8 7 6 4 4 3 3 3
13 14 14 14 15 14 14 14 14 15 15 15 16 16 16 16 15 15 15 15 14 13 12 11 12 11 11 11 13 13 12 11 12 13 13 13 13 12 10 8 7 6 7 12 16 17 17 17 15 13 11 9 9 8 8 7 8 8 8 8 7 7 8 7 6 5 4 4 4
10 11 11 13 15 16 16 16 16 16 16 16 16 16 16 16 15 14 14 14 14 13 12 10 10 9 8 8 11 12 13 12 12 12 12 12 13 12 11 8 7 7 10 15 18 18 18 18 17 16 13 10 9 8 8 8 8 7 7 7 7 7 7 7 6 6 5 5 5
8 9 9 10 13 15 16 17 17 17 16 16 16 16 16 16 14 14 14 14 14 13 11 9 8 6 6 7 10 11 13 13 12 11 11 11 11 11 10 9 8 9 12 17 18 19 18 18 18 17 15 12 8 7 6 7 6 6 6 5 6 6 6 6 5 6 6 6 6
6 7 9 10 11 13 14 15 15 15 15 14 15 15 15 15 14 14 14 15 15 13 11 8 7 7 8 9 10 11 11 11 11 11 11 11 11 10 9 9 8 10 14 18 19 19 19 19 18 17 16 14 10 8 6 6 6 6 6 5 6 6 7 6 7 6 6 6 7
5 7 9 10 10 11 12 12 13 13 13 13 14 15 15 14 14 14 15 15 13 12 10 10 9 10 10 10 10 10 11 11 10 10 10 11 10 10 9 9 9 11 14 19 19 19 19 19 18 18 17 15 11 8 7 7 6 6 6 6 6 7 7 7 7 7 7 7 7
5 6 8 10 11 11 11 12 12 13 13 13 14 14 14 14 13 13 13 13 12 12 11 10 10 10 11 11 10 11 11 11 11 10 10 10 10 10 10 9 9 11 14 19 19 20 20 19 19 18 17 15 12 9 8 8 7 7 7 7 7 7 7 6 6 6 7 7 7
4 5 7 9 10 11 12 13 13 13 13 13 14 14 14 13 12 12 12 12 12 12 12 11 11 11 11 12 11 11 11 11 11 10 10 10 11 11 10 9 8 10 14 19 20 20 20 20 20 19 18 16 12 10 9 8 7 7 7 7 7 7 7 7 6 6 6 7 6
3 4 5 7 8 10 11 12 13 14 14 14 14 14 14 13 13 13 12 11 10 10 10 10 10 10 11 11 12 12 11 10 10 10 10 10 11 11 10 8 6 10 15 20 20 21 21 21 21 20 19 16 12 10 9 9 8 7 7 7 7 6 6 6 6 6 6 6 6
6 5 6 6 7 8 10 11 13 14 15 16 15 14 14 15 15 15 14 12 10 9 8 8 8 8 8 9 10 11 11 11 10 11 11 11 12 12 11 8 8 12 17 20 21 22 22 22 21 20 18 14 10 9 9 10 9 9 8 8 7 7 7 6 6 6 6 6 6
8 8 8 8 9 9 10 11 12 14 16 16 15 15 15 16 16 15 14 13 11 10 10 9 8 8 7 7 8 9 10 12 12 11 11 11 12 12 11 10 10 14 18 21 22 22 22 22 22 20 17 12 9 8 8 8 8 8 9 8 8 7 7 6 6 5 5 5 5
10 11 11 11 11 11 11 12 13 14 15 15 15 16 16 16 15 14 13 12 12 12 11 10 9 9 8 8 7 7 8 11 12 12 12 12 13 13 12 11 11 14 17 21 22 23 23 22 22 19 16 11 9 8 8 7 7 7 8 8 7 6 6 5 5 5 5 4 5
12 12 13 13 12 12 12 13 13 14 14 15 15 16 16 16 15 14 14 13 13 13 13 11 10 10 9 9 9 9 10 10 12 12 12 12 13 14 14 13 12 13 16 20 22 23 22 22 21 19 15 11 9 8 7 7 6 6 6 6 6 5 4 4 4 4 4 4 6
12 13 13 14 13 12 11 12 13 14 15 16 16 16 16 15 14 14 14 13 14 14 14 13 12 11 10 9 9 10 10 9 10 11 12 13 13 14 15 14 12 13 15 20 22 22 22 22 21 19 16 12 9 8 7 7 6 6 6 6 5 5 4 4 3 3 3 3 8
11 12 13 14 14 13 12 12 13 13 14 16 17 17 16 16 15 15 14 13 14 14 14 13 13 12 10 10 10 10 10 8 8 9 11 13 14 15 15 14 13 13 15 19 21 22 22 22 21 19 16 11 9 7 7 7 7 7 6 5 5 4 4 3 3 3 3 3 5
10 11 13 14 15 16 15 14 13 13 14 15 17 16 15 15 15 14 14 12 13 12 12 12 13 13 11 10 10 11 10 8 7 8 10 12 13 14 14 13 13 14 15 18 20 21 21 21 21 19 15 10 8 7 7 7 7 7 6 5 5 4 4 3 3 3 3 3 3
Wind_Direction
90 88 86 80 77 75 71 66 62 59 57 56 54 57 66 83 89 89 87 88 87 85 83 82 87 88 88 88 90 92 94 96 94 90 85 80 77 73 68 64 68 75 81 84 79 74 68 67 71 73 75 79 80 80 82 91 98 100 100 101 106 108 108 107 111 114 115 115 119
98 94 90 89 91 91 87 83 78 74 71 67 63 64 69 79 83 82 78 76 78 82 85 86 90 91 90 88 89 93 97 101 99 95 90 86 83 80 77 72 71 77 85 89 88 88 91 97 101 100 96 92 92 91 92 98 104 104 102 101 104 103 103 105 112 117 119 119 120
108 106 104 106 109 108 105 100 96 92 88 84 80 77 75 73 78 82 84 86 88 90 92 93 92 92 91 90 88 90 93 97 96 95 93 92 88 84 80 72 62 57 60 71 83 97 116 126 122 120 117 115 112 111 112 113 110 107 106 105 105 103 103 108 116 118 118 116 113
116 116 117 118 118 116 115 114 110 106 102 97 90 83 75 67 74 85 94 98 98 98 99 100 96 93 92 94 93 92 91 90 89 90 91 91 90 88 85 81 74 65 59 62 79 95 108 115 118 122 125 126 125 127 129 129 116 109 108 110 108 107 108 112 118 117 113 109 104
129 135 139 137 129 124 121 120 118 115 112 108 103 95 86 76 76 85 93 100 104 106 106 105 101 97 97 99 100 100 99 96 95 97 99 101 102 105 108 112 119 129 139 144 144 141 138 133 136 140 140 139 138 140 141 135 120 112 108 109 109 110 112 114 114 110 105 100 94
148 152 152 147 140 134 130 128 127 126 126 126 124 122 119 114 104 101 104 110 112 112 111 108 105 103 103 104 108 111 114 115 117 118 119 119 122 127 134 143 155 163 168 167 163 159 156 152 152 153 150 143 141 143 141 132 121 115 112 109 112 112 111 113 111 104 98 95 91
156 155 153 150 146 142 141 141 138 138 138 137 136 136 136 135 130 127 125 126 123 120 118 115 115 115 115 116 122 127 133 135 134 132 132 133 139 145 152 161 168 171 172 168 164 162 159 156 154 153 150 143 143 144 142 133 125 121 119 118 118 113 110 111 109 103 99 97 96
155 151 147 146 145 144 144 144 142 141 141 141 142 142 141 140 140 140 141 142 140 137 133 129 129 129 130 134 140 145 147 146 144 142 142 144 150 156 162 168 171 172 170 166 163 161 159 156 153 151 150 147 147 148 144 134 127 123 121 121 115 107 103 110 106 103 102 101 100
152 146 141 141 142 143 143 143 141 140 141 145 147 147 146 146 146 147 149 152 152 149 144 139 138 138 140 144 150 153 153 151 149 148 149 152 157 162 167 170 170 170 167 164 160 156 153 148 148 148 149 147 147 148 145 135 126 122 121 120 112 102 94 98 101 103 103 104 105
149 145 140 140 142 143 144 144 143 142 144 148 152 152 151 151 152 154 155 155 153 151 149 147 146 146 147 151 154 155 155 154 153 153 154 158 163 167 170 170 167 164 161 159 153 148 143 138 139 141 141 140 142 144 142 134 125 122 121 120 113 104 97 94 99 102 104 107 110
151 148 146 145 146 145 145 145 144 145 147 150 154 156 156 156 157 158 157 154 152 152 153 154 155 155 155 157 158 158 159 159 157 157 159 163 169 171 171 167 162 157 153 150 145 141 137 134 134 135 136 137 140 141 138 131 124 121 119 118 112 108 103 98 100 103 107 111 114
154 151 149 151 150 149 148 149 148 148 149 151 155 158 160 161 161 160 158 155 155 156 158 161 161 161 160 158 159 161 162 163 162 161 163 168 171 170 167 161 156 151 148 146 144 139 136 135 135 135 136 139 141 140 135 129 123 121 120 118 113 111 109 108 107 109 113 117 119
155 152 151 155 155 153 152 154 154 153 152 152 156 159 162 164 163 162 160 158 158 159 161 163 163 162 160 159 161 163 165 165 165 165 167 170 169 166 161 156 153 150 147 145 142 138 134 135 136 137 139 142 142 139 135 130 126 125 125 123 119 117 118 120 120 119 119 121 123
155 153 154 158 159 157 156 157 159 158 156 154 157 160 162 163 165 164 163 162 161 160 160 162 163 163 162 162 162 164 165 165 167 168 169 168 165 162 159 156 153 149 146 143 138 135 134 137 139 140 141 142 141 139 135 131 130 130 130 129 127 127 128 130 131 129 127 126 127
159 157 157 159 161 162 161 161 163 162 160 158 159 160 161 163 166 167 166 164 161 159 159 160 162 164 165 165 164 163 163 164 166 167 167 164 162 160 158 155 152 148 143 139 135 134 136 139 141 142 142 142 141 139 135 133 132 133 134 134 134 135 136 139 139 137 134 133 132
167 163 162 163 164 165 166 166 166 165 163 161 161 161 161 162 166 168 167 165 162 160 159 161 162 165 167 167 165 163 161 162 165 165 163 161 161 160 158 156 152 147 141 137 134 134 135 138 140 141 141 141 141 139 136 133 132 132 133 134 136 138 141 145 144 142 139 136 135
179 173 170 169 168 168 169 170 169 167 166 164 163 161 160 161 164 167 168 167 164 162 161 163 164 165 166 166 164 162 160 162 163 163 162 161 160 160 160 158 154 148 142 138 136 135 135 135 137 138 139 139 138 137 136 133 132 132 132 133 136 139 143 146 145 142 139 135 137
191 184 179 176 173 171 171 171 170 168 168 167 164 162 161 161 163 166 169 170 167 164 164 165 165 165 163 163 162 161 161 162 163 162 161 160 160 161 161 160 154 148 143 139 138 137 137 136 135 134 134 134 135 134 133 131 131 131 131 132 135 137 140 142 141 139 137 136 140
197 190 185 182 179 176 173 173 170 168 168 168 165 164 163 163 164 166 169 172 170 168 165 164 164 162 161 160 158 158 160 161 161 160 158 157 158 160 161 159 151 146 141 139 138 138 138 138 136 135 134 133 132 130 130 128 129 129 130 130 132 133 135 136 136 135 136 138 143
197 193 189 187 184 180 177 175 171 168 166 167 166 165 165 165 166 167 170 173 172 170 166 162 160 158 157 156 155 156 158 158 157 156 154 154 157 160 160 156 148 142 138 137 137 137 138 138 138 137 136 135 133 131 129 127 127 127 126 126 127 128 130 131 131 132 134 138 143
197 193 191 190 187 184 180 177 172 167 165 166 167 167 167 167 168 170 171 172 171 168 164 159 156 155 154 154 155 156 156 155 154 153 152 152 157 160 159 152 144 139 136 136 137 138 139 140 140 140 138 137 135 134 132 129 127 124 123 121 121 122 124 126 128 130 133 138 143
203 195 192 190 188 185 181 177 172 167 164 165 166 167 168 168 170 170 170 169 168 165 161 156 154 153 154 154 155 155 154 152 152 151 151 153 157 158 156 147 140 137 136 136 138 139 140 140 141 141 139 138 137 136 134 131 128 124 121 117 115 114 115 117 122 127 133 140 143
232 211 196 189 187 183 178 175 171 167 165 165 166 167 167 168 169 169 167 166 166 163 159 153 152 152 153 154 154 152 150 148 148 149 151 152 154 154 151 144 139 138 139 141 141 141 140 140 140 140 140 138 138 136 135 132 130 127 123 119 115 112 109 110 115 121 128 134 136
253 242 220 192 183 177 172 170 169 168 167 167 167 166 165 165 166 166 166 165 165 163 158 151 150 151 151 151 151 150 149 148 148 149 151 152 153 152 149 143 141 141 143 144 146 146 144 142 142 142 140 139 139 138 136 135 132 130 127 124 119 114 109 105 107 111 116 120 125
241 238 229 201 180 169 165 164 167 169 170 170 168 165 163 161 162 164 165 165 165 163 158 151 150 149 149 149 150 149 149 149 150 151 152 154 155 153 149 143 142 142 143 145 148 147 146 144 144 144 142 140 138 137 135 134 133 132 131 128 125 120 113 103 96 95 100 109 122
222 219 212 193 175 166 164 167 172 174 173 170 167 164 162 160 160 161 162 163 163 161 157 151 150 150 151 151 150 149 148 149 151 152 153 156 157 154 149 143 142 141 144 148 149 147 145 144 144 142 141 140 138 136 134 133 133 132 130 129 127 125 120 114 105 96 91 92 105
214 207 199 182 169 166 170 176 178 178 174 169 165 163 161 159 158 158 159 159 159 157 154 152 152 153 152 151 149 148 148 150 153 154 156 158 157 153 148 142 142 142 146 149 147 146 144 143 143 141 139 137 137 136 135 133 131 128 127 127 127 126 125 123 119 111 99 85 81
210 200 190 176 168 168 172 177 179 178 174 167 164 161 160 158 156 156 156 156 155 154 153 153 154 152 149 148 147 148 149 151 153 156 158 159 156 151 147 142 142 145 148 149 146 144 143 142 142 141 138 134 133 132 131 130 128 125 123 123 123 123 124 125 124 118 109 97 87
204 193 183 174 169 169 172 176 177 174 170 164 161 159 157 156 155 154 153 154 155 155 154 153 152 147 142 145 146 146 148 150 153 155 157 158 153 148 144 140 140 144 147 147 144 142 141 141 140 139 136 133 129 127 127 127 126 123 121 120 121 122 123 124 123 120 115 108 101
194 179 169 164 164 165 168 171 170 166 160 156 155 155 155 155 153 153 154 155 157 157 155 150 147 145 145 145 143 143 146 150 151 153 154 154 149 144 140 137 140 143 145 145 142 140 139 138 137 134 131 127 122 119 120 121 121 120 119 118 119 121 122 123 123 122 120 116 110
191 172 161 156 154 155 158 160 157 153 149 145 150 153 155 155 156 157 157 157 156 154 150 146 145 145 144 140 139 141 144 147 149 151 151 149 144 139 135 134 137 141 143 143 139 137 135 134 132 129 125 121 117 115 115 116 115 116 117 119 121 122 122 123 124 125 124 122 117
196 179 165 158 153 151 151 151 147 145 144 145 151 155 157 157 157 158 157 154 150 148 146 145 143 140 137 133 135 138 142 145 147 148 147 144 138 134 130 129 135 138 140 141 136 133 131 130 127 123 120 116 112 109 109 109 108 108 110 112 116 119 121 123 124 124 124 123 122
213 191 176 165 158 154 152 151 149 148 148 151 155 157 157 154 153 153 152 149 146 145 146 145 142 138 135 134 135 138 142 144 144 143 140 136 133 129 126 125 131 137 138 137 132 129 128 126 122 119 116 112 109 106 105 105 103 103 102 103 106 110 113 116 118 120 120 120 121
243 209 192 177 166 160 157 153 151 151 152 155 158 157 154 150 150 152 152 150 145 143 141 140 137 135 134 135 137 139 141 140 138 136 134 132 129 126 124 123 128 136 137 133 129 126 125 123 120 116 113 110 106 104 104 103 102 102 101 100 98 99 101 105 109 112 114 115 116
249 232 217 201 180 169 162 157 153 153 155 157 158 156 153 151 153 155 155 151 141 133 127 122 120 120 123 129 134 136 137 134 133 133 133 133 129 125 122 123 127 134 135 130 127 125 123 121 118 115 112 107 104 103 103 103 102 103 103 101 98 96 96 98 101 104 109 112 115
227 216 206 200 187 176 166 160 157 156 157 157 156 155 154 154 156 156 153 145 133 124 118 113 110 112 117 125 130 131 132 133 133 134 135 135 130 126 124 125 129 133 134 129 127 125 124 121 118 115 112 107 104 103 104 103 103 103 102 100 98 97 98 99 102 104 107 111 115
208 199 191 187 181 173 166 161 159 158 158 157 155 154 153 153 153 151 146 134 126 122 120 117 119 126 133 137 132 127 128 133 135 137 138 136 131 128 127 128 130 132 132 130 128 126 125 122 120 117 113 108 108 107 105 103 103 102 100 98 96 95 95 98 102 104 107 111 116
196 188 180 173 167 163 161 160 159 159 158 157 155 153 151 149 147 144 139 131 127 126 125 125 132 139 144 141 130 126 128 134 138 140 140 137 134 132 131 131 131 131 131 131 129 127 126 124 122 119 117 113 114 113 110 107 106 105 104 102 98 92 88 91 94 99 107 120 127
190 182 173 161 155 153 155 160 161 160 158 156 154 152 149 146 144 143 140 136 134 133 132 134 140 143 141 132 121 119 123 134 140 142 140 137 136 134 133 131 131 131 131 132 130 128 127 125 124 122 119 116 117 116 114 112 111 110 110 108 104 95 86 84 86 89 100 121 131
190 182 172 159 150 150 155 164 166 163 160 156 154 152 150 149 146 144 141 137 137 135 135 137 140 139 132 122 117 117 121 129 138 140 138 135 135 134 133 129 129 130 131 132 131 130 128 128 126 124 121 116 117 117 116 115 115 115 115 114 112 105 94 83 82 81 81 85 116
192 185 177 165 156 154 158 166 169 168 163 158 156 154 151 149 145 141 138 134 135 134 133 134 135 132 126 118 115 117 120 124 131 133 133 131 132 132 130 127 128 129 130 133 133 132 130 129 128 126 123 118 118 118 119 119 119 120 122 123 121 118 111 99 84 78 72 66 75